Location: Staunton
(38.1490°N, 79.0720°W)
Time: 14:47:44
(UTC-04:00)

ISS - Pass Details

Date: 24 July 2017
Orbit: 400 x 408 km, 51.6° (Epoch: 21 July)

Event Time Altitude Azimuth Distance (km) Brightness Sun altitude
Rises 02:47:26 0° 320° (NW) 2,313 0.3 -28.7°
Reaches altitude 10° 02:50:28 10° 351° (N) 1,453 -0.3 -28.5°
Maximum altitude 02:51:59 13° 19° (NNE) 1,305 -0.4 -28.4°
Drops below altitude 10° 02:53:30 10° 47° (NE) 1,453 -0.2 -28.3°
Sets 02:56:32 0° 78° (ENE) 2,311 0.5 -28.0°
